QPF
0.00 0.00 0.00 0.00 0.00 0.00 0.00 0.00 0.00 0.00 0.00 0.00 0.00 0.00 0.00 0.00 0.00 0.00 0.00 0.00 0.00 0.01 0.00 0.01 0.01 0.01 0.01 0.00 0.00 0.00 0.00 0.01 0.01 0.03 0.03 0.03 0.03 0.04 0.06 0.08 0.06 0.04 0.03 0.02
0.00 0.00 0.00 0.00 0.00 0.00 0.00 0.00 0.00 0.00 0.00 0.00 0.00 0.00 0.00 0.00 0.00 0.00 0.00 0.01 0.01 0.01 0.01 0.01 0.01 0.01 0.01 0.01 0.00 0.00 0.00 0.01 0.01 0.02 0.03 0.03 0.04 0.05 0.05 0.06 0.06 0.04 0.03 0.03
0.00 0.00 0.00 0.00 0.00 0.00 0.00 0.00 0.00 0.00 0.00 0.00 0.00 0.00 0.00 0.00 0.00 0.00 0.00 0.00 0.00 0.01 0.01 0.01 0.01 0.01 0.01 0.01 0.00 0.00 0.00 0.01 0.01 0.01 0.03 0.04 0.05 0.05 0.06 0.07 0.05 0.04 0.03 0.02
0.00 0.00 0.00 0.00 0.00 0.00 0.00 0.00 0.00 0.00 0.00 0.00 0.00 0.01 0.01 0.01 0.01 0.01 0.00 0.00 0.00 0.00 0.01 0.01 0.01 0.02 0.02 0.01 0.01 0.00 0.00 0.01 0.01 0.02 0.03 0.04 0.05 0.06 0.06 0.05 0.04 0.03 0.03 0.02
0.00 0.00 0.00 0.00 0.00 0.00 0.00 0.00 0.00 0.00 0.01 0.01 0.00 0.01 0.01 0.01 0.01 0.01 0.01 0.00 0.00 0.00 0.00 0.01 0.02 0.02 0.02 0.02 0.02 0.01 0.01 0.02 0.02 0.03 0.04 0.04 0.05 0.06 0.05 0.04 0.03 0.04 0.04 0.03
0.00 0.00 0.00 0.00 0.00 0.00 0.00 0.00 0.00 0.00 0.01 0.01 0.00 0.00 0.01 0.01 0.00 0.00 0.00 0.01 0.00 0.00 0.00 0.01 0.02 0.02 0.02 0.02 0.02 0.03 0.03 0.03 0.03 0.04 0.03 0.03 0.04 0.05 0.03 0.02 0.02 0.02 0.03 0.03
0.00 0.00 0.00 0.00 0.00 0.00 0.00 0.01 0.01 0.01 0.01 0.01 0.00 0.01 0.01 0.01 0.00 0.00 0.00 0.00 0.01 0.00 0.00 0.00 0.01 0.02 0.02 0.02 0.02 0.03 0.02 0.02 0.02 0.02 0.02 0.02 0.02 0.02 0.02 0.02 0.01 0.01 0.02 0.03
0.01 0.00 0.00 0.00 0.00 0.00 0.00 0.01 0.02 0.02 0.01 0.01 0.00 0.01 0.01 0.01 0.01 0.01 0.01 0.01 0.01 0.01 0.00 0.00 0.00 0.00 0.01 0.02 0.02 0.02 0.02 0.02 0.01 0.01 0.01 0.01 0.01 0.01 0.01 0.01 0.01 0.01 0.01 0.02
0.01 0.01 0.00 0.00 0.00 0.00 0.01 0.01 0.01 0.02 0.02 0.01 0.01 0.01 0.01 0.01 0.01 0.01 0.01 0.01 0.01 0.01 0.01 0.00 0.00 0.00 0.00 0.01 0.01 0.01 0.01 0.01 0.01 0.01 0.01 0.01 0.01 0.01 0.01 0.01 0.01 0.01 0.01 0.01
0.01 0.01 0.01 0.00 0.00 0.00 0.01 0.01 0.01 0.02 0.02 0.01 0.01 0.00 0.01 0.01 0.01 0.01 0.01 0.01 0.01 0.01 0.01 0.00 0.00 0.00 0.00 0.00 0.00 0.00 0.00 0.00 0.00 0.01 0.01 0.01 0.01 0.01 0.02 0.02 0.02 0.02 0.01 0.01
0.02 0.02 0.01 0.00 0.00 0.00 0.01 0.01 0.02 0.02 0.02 0.01 0.01 0.01 0.01 0.01 0.01 0.01 0.01 0.01 0.01 0.01 0.01 0.01 0.00 0.00 0.00 0.00 0.00 0.00 0.00 0.00 0.00 0.01 0.01 0.01 0.02 0.02 0.02 0.02 0.02 0.02 0.02 0.02
0.02 0.02 0.01 0.01 0.00 0.00 0.00 0.01 0.01 0.02 0.02 0.01 0.01 0.01 0.01 0.01 0.01 0.01 0.01 0.01 0.01 0.01 0.01 0.01 0.01 0.01 0.00 0.00 0.00 0.00 0.00 0.00 0.00 0.01 0.01 0.01 0.02 0.02 0.03 0.03 0.02 0.02 0.02 0.02
0.03 0.04 0.03 0.02 0.01 0.00 0.00 0.00 0.00 0.01 0.02 0.01 0.01 0.01 0.01 0.01 0.01 0.01 0.01 0.01 0.01 0.00 0.00 0.00 0.00 0.00 0.00 0.00 0.00 0.00 0.00 0.00 0.00 0.01 0.01 0.01 0.02 0.02 0.03 0.04 0.03 0.03 0.03 0.03
0.03 0.04 0.03 0.02 0.01 0.01 0.01 0.01 0.01 0.01 0.02 0.01 0.01 0.01 0.01 0.01 0.01 0.01 0.01 0.01 0.00 0.00 0.00 0.00 0.00 0.00 0.00 0.00 0.00 0.00 0.00 0.00 0.00 0.00 0.01 0.01 0.01 0.01 0.02 0.04 0.05 0.04 0.03 0.04
0.03 0.04 0.02 0.01 0.01 0.01 0.01 0.01 0.01 0.02 0.01 0.01 0.01 0.01 0.01 0.01 0.01 0.01 0.01 0.00 0.00 0.00 0.00 0.00 0.00 0.00 0.00 0.00 0.00 0.00 0.00 0.00 0.00 0.00 0.00 0.01 0.01 0.01 0.02 0.03 0.05 0.05 0.04 0.04
0.02 0.03 0.02 0.01 0.00 0.00 0.01 0.01 0.01 0.01 0.01 0.01 0.00 0.00 0.01 0.01 0.01 0.00 0.00 0.00 0.00 0.00 0.00 0.00 0.00 0.00 0.00 0.00 0.00 0.00 0.00 0.01 0.01 0.01 0.01 0.01 0.01 0.02 0.02 0.03 0.04 0.05 0.05 0.03
0.02 0.02 0.02 0.01 0.00 0.01 0.01 0.01 0.01 0.01 0.01 0.01 0.01 0.01 0.01 0.01 0.00 0.00 0.00 0.00 0.00 0.00 0.00 0.00 0.00 0.00 0.00 0.00 0.01 0.01 0.01 0.01 0.01 0.02 0.02 0.02 0.02 0.02 0.02 0.03 0.03 0.05 0.05 0.04
0.02 0.03 0.03 0.02 0.01 0.01 0.01 0.01 0.01 0.01 0.01 0.01 0.01 0.01 0.01 0.00 0.01 0.00 0.00 0.00 0.00 0.01 0.01 0.01 0.01 0.01 0.01 0.01 0.01 0.01 0.01 0.01 0.02 0.02 0.02 0.02 0.02 0.02 0.02 0.02 0.03 0.04 0.05 0.04
0.02 0.03 0.04 0.03 0.02 0.01 0.01 0.01 0.01 0.01 0.02 0.01 0.01 0.01 0.01 0.00 0.01 0.00 0.01 0.01 0.01 0.02 0.02 0.01 0.01 0.02 0.01 0.02 0.02 0.01 0.01 0.01 0.02 0.02 0.02 0.02 0.02 0.02 0.02 0.02 0.02 0.03 0.04 0.04
0.01 0.02 0.03 0.03 0.02 0.01 0.01 0.01 0.01 0.01 0.02 0.01 0.02 0.02 0.01 0.01 0.01 0.01 0.02 0.02 0.02 0.02 0.02 0.02 0.02 0.01 0.01 0.01 0.01 0.01 0.01 0.01 0.02 0.02 0.02 0.02 0.02 0.02 0.02 0.02 0.02 0.03 0.04 0.04
0.01 0.02 0.02 0.02 0.02 0.01 0.01 0.01 0.01 0.02 0.02 0.02 0.03 0.02 0.02 0.02 0.02 0.02 0.02 0.02 0.02 0.01 0.01 0.01 0.01 0.01 0.01 0.01 0.01 0.01 0.01 0.01 0.01 0.01 0.02 0.02 0.02 0.02 0.02 0.03 0.02 0.02 0.03 0.03
0.01 0.02 0.02 0.02 0.03 0.02 0.02 0.01 0.02 0.03 0.02 0.03 0.03 0.03 0.02 0.02 0.02 0.01 0.01 0.01 0.01 0.01 0.01 0.01 0.01 0.01 0.01 0.01 0.01 0.01 0.01 0.01 0.01 0.01 0.01 0.01 0.01 0.01 0.01 0.02 0.02 0.02 0.02 0.03
0.01 0.02 0.02 0.02 0.02 0.02 0.02 0.02 0.02 0.03 0.03 0.02 0.02 0.02 0.02 0.02 0.01 0.01 0.01 0.01 0.01 0.01 0.01 0.01 0.01 0.01 0.01 0.01 0.01 0.01 0.01 0.01 0.01 0.01 0.01 0.01 0.01 0.01 0.01 0.01 0.02 0.02 0.02 0.02
0.01 0.01 0.01 0.01 0.01 0.01 0.01 0.01 0.01 0.02 0.03 0.02 0.02 0.01 0.01 0.01 0.01 0.01 0.01 0.00 0.00 0.00 0.00 0.00 0.00 0.01 0.00 0.00 0.01 0.01 0.01 0.01 0.01 0.01 0.00 0.00 0.00 0.00 0.00 0.01 0.01 0.01 0.01 0.01
0.01 0.01 0.01 0.01 0.01 0.01 0.01 0.01 0.01 0.01 0.01 0.01 0.01 0.01 0.01 0.01 0.01 0.01 0.01 0.00 0.00 0.00 0.00 0.00 0.00 0.00 0.00 0.00 0.00 0.00 0.00 0.00 0.00 0.00 0.00 0.00 0.00 0.00 0.00 0.00 0.00 0.01 0.01 0.02
0.01 0.01 0.01 0.01 0.01 0.01 0.01 0.01 0.01 0.01 0.01 0.01 0.01 0.01 0.01 0.01 0.01 0.00 0.00 0.00 0.00 0.00 0.00 0.00 0.00 0.00 0.00 0.00 0.00 0.00 0.00 0.00 0.00 0.00 0.00 0.00 0.00 0.00 0.00 0.00 0.00 0.00 0.00 0.01
MSLP
1015.86 1015.77 1015.73 1015.77 1015.91 1016.14 1016.42 1016.73 1016.98 1017.13 1017.12 1016.92 1016.54 1016.01 1015.41 1014.81 1014.32 1014.02 1013.98 1014.22 1014.75 1015.55 1016.55 1017.68 1018.88 1020.07 1021.20 1022.25 1023.19 1024.01 1024.72 1025.34 1025.87 1026.34 1026.74 1027.10 1027.43 1027.72 1027.99 1028.25 1028.49 1028.72 1028.93 1029.10
1015.97 1015.85 1015.79 1015.81 1015.92 1016.12 1016.37 1016.62 1016.81 1016.87 1016.77 1016.47 1015.99 1015.36 1014.66 1013.98 1013.40 1013.03 1012.92 1013.11 1013.60 1014.37 1015.37 1016.54 1017.78 1019.05 1020.28 1021.42 1022.46 1023.38 1024.18 1024.85 1025.43 1025.91 1026.33 1026.69 1027.01 1027.31 1027.60 1027.89 1028.18 1028.46 1028.72 1028.95
1016.22 1016.11 1016.07 1016.10 1016.21 1016.38 1016.57 1016.74 1016.81 1016.75 1016.51 1016.08 1015.49 1014.77 1014.00 1013.27 1012.66 1012.26 1012.12 1012.27 1012.73 1013.46 1014.43 1015.56 1016.80 1018.08 1019.34 1020.55 1021.66 1022.65 1023.52 1024.26 1024.89 1025.41 1025.84 1026.20 1026.52 1026.82 1027.12 1027.41 1027.72 1028.04 1028.34 1028.62
1016.48 1016.46 1016.49 1016.57 1016.70 1016.85 1016.98 1017.04 1016.97 1016.75 1016.35 1015.78 1015.08 1014.29 1013.49 1012.75 1012.16 1011.79 1011.67 1011.82 1012.25 1012.93 1013.82 1014.88 1016.05 1017.27 1018.50 1019.69 1020.82 1021.86 1022.78 1023.59 1024.27 1024.83 1025.29 1025.67 1025.99 1026.27 1026.55 1026.85 1027.16 1027.49 1027.82 1028.15
1016.66 1016.77 1016.92 1017.11 1017.29 1017.44 1017.51 1017.46 1017.24 1016.84 1016.28 1015.57 1014.77 1013.93 1013.14 1012.45 1011.94 1011.65 1011.59 1011.77 1012.19 1012.81 1013.61 1014.55 1015.58 1016.67 1017.80 1018.92 1020.01 1021.05 1022.00 1022.85 1023.58 1024.20 1024.69 1025.09 1025.41 1025.69 1025.96 1026.24 1026.54 1026.88 1027.24 1027.60
1016.65 1016.94 1017.26 1017.58 1017.85 1018.03 1018.05 1017.90 1017.53 1016.97 1016.25 1015.42 1014.54 1013.69 1012.94 1012.35 1011.96 1011.78 1011.83 1012.08 1012.50 1013.07 1013.75 1014.53 1015.39 1016.30 1017.26 1018.25 1019.26 1020.25 1021.20 1022.08 1022.85 1023.51 1024.05 1024.48 1024.82 1025.10 1025.36 1025.62 1025.92 1026.26 1026.64 1027.04
1016.43 1016.92 1017.43 1017.90 1018.28 1018.50 1018.51 1018.27 1017.78 1017.08 1016.23 1015.29 1014.36 1013.52 1012.84 1012.36 1012.12 1012.09 1012.27 1012.59 1013.03 1013.55 1014.12 1014.74 1015.40 1016.10 1016.86 1017.69 1018.56 1019.48 1020.39 1021.26 1022.07 1022.77 1023.36 1023.82 1024.19 1024.49 1024.75 1025.02 1025.32 1025.66 1026.05 1026.48
1016.05 1016.72 1017.40 1018.02 1018.51 1018.78 1018.79 1018.50 1017.92 1017.11 1016.15 1015.14 1014.18 1013.36 1012.76 1012.41 1012.31 1012.43 1012.73 1013.14 1013.61 1014.09 1014.56 1015.02 1015.48 1015.98 1016.53 1017.17 1017.90 1018.71 1019.56 1020.41 1021.23 1021.96 1022.59 1023.10 1023.51 1023.84 1024.12 1024.41 1024.72 1025.08 1025.49 1025.95
1015.61 1016.40 1017.21 1017.95 1018.52 1018.85 1018.86 1018.53 1017.90 1017.02 1015.99 1014.93 1013.96 1013.17 1012.63 1012.39 1012.41 1012.66 1013.07 1013.56 1014.05 1014.51 1014.89 1015.22 1015.52 1015.83 1016.20 1016.66 1017.24 1017.92 1018.70 1019.51 1020.31 1021.06 1021.72 1022.28 1022.73 1023.10 1023.43 1023.75 1024.09 1024.48 1024.93 1025.42
1015.22 1016.06 1016.92 1017.72 1018.33 1018.68 1018.70 1018.36 1017.69 1016.78 1015.72 1014.64 1013.67 1012.91 1012.42 1012.25 1012.36 1012.69 1013.17 1013.71 1014.23 1014.67 1015.00 1015.23 1015.41 1015.58 1015.79 1016.11 1016.55 1017.12 1017.80 1018.55 1019.32 1020.06 1020.73 1021.32 1021.82 1022.24 1022.62 1022.99 1023.38 1023.82 1024.31 1024.83
1014.98 1015.76 1016.59 1017.36 1017.96 1018.30 1018.31 1017.97 1017.30 1016.39 1015.34 1014.27 1013.32 1012.57 1012.12 1011.98 1012.12 1012.50 1013.01 1013.57 1014.09 1014.52 1014.83 1015.01 1015.12 1015.20 1015.32 1015.52 1015.84 1016.30 1016.88 1017.55 1018.26 1018.96 1019.62 1020.22 1020.74 1021.21 1021.64 1022.07 1022.53 1023.03 1023.57 1024.15
1014.90 1015.54 1016.24 1016.91 1017.43 1017.72 1017.71 1017.38 1016.74 1015.87 1014.87 1013.85 1012.93 1012.22 1011.78 1011.64 1011.79 1012.15 1012.65 1013.21 1013.73 1014.15 1014.45 1014.62 1014.71 1014.75 1014.81 1014.93 1015.17 1015.53 1016.00 1016.57 1017.18 1017.81 1018.43 1019.00 1019.53 1020.03 1020.51 1021.00 1021.53 1022.10 1022.71 1023.35
1014.95 1015.38 1015.88 1016.37 1016.77 1016.98 1016.95 1016.63 1016.05 1015.27 1014.35 1013.42 1012.58 1011.92 1011.49 1011.35 1011.47 1011.79 1012.25 1012.77 1013.27 1013.69 1013.99 1014.18 1014.28 1014.32 1014.36 1014.44 1014.60 1014.86 1015.22 1015.67 1016.16 1016.69 1017.22 1017.74 1018.25 1018.75 1019.27 1019.81 1020.40 1021.04 1021.72 1022.42
1015.06 1015.22 1015.47 1015.76 1016.00 1016.12 1016.06 1015.79 1015.30 1014.64 1013.87 1013.07 1012.34 1011.75 1011.37 1011.22 1011.30 1011.57 1011.97 1012.44 1012.90 1013.31 1013.62 1013.83 1013.95 1014.02 1014.06 1014.11 1014.21 1014.38 1014.62 1014.93 1015.29 1015.68 1016.10 1016.54 1017.00 1017.48 1018.01 1018.59 1019.23 1019.92 1020.67 1021.43
1015.16 1015.04 1015.04 1015.10 1015.18 1015.21 1015.14 1014.93 1014.57 1014.07 1013.49 1012.87 1012.29 1011.82 1011.50 1011.37 1011.42 1011.63 1011.96 1012.36 1012.78 1013.16 1013.47 1013.70 1013.85 1013.94 1013.98 1014.01 1014.06 1014.14 1014.26 1014.42 1014.63 1014.88 1015.17 1015.51 1015.89 1016.33 1016.85 1017.44 1018.11 1018.84 1019.62 1020.42
1015.23 1014.85 1014.61 1014.47 1014.41 1014.37 1014.30 1014.17 1013.96 1013.66 1013.29 1012.89 1012.51 1012.18 1011.95 1011.85 1011.89 1012.05 1012.31 1012.64 1012.99 1013.32 1013.62 1013.85 1014.01 1014.11 1014.16 1014.16 1014.15 1014.14 1014.15 1014.18 1014.24 1014.35 1014.51 1014.74 1015.04 1015.43 1015.91 1016.48 1017.15 1017.89 1018.68 1019.50
1015.30 1014.72 1014.28 1013.99 1013.82 1013.73 1013.69 1013.66 1013.61 1013.51 1013.37 1013.20 1013.02 1012.85 1012.73 1012.68 1012.72 1012.83 1013.02 1013.27 1013.54 1013.82 1014.07 1014.28 1014.43 1014.51 1014.54 1014.52 1014.46 1014.37 1014.27 1014.19 1014.13 1014.11 1014.16 1014.29 1014.51 1014.83 1015.27 1015.81 1016.45 1017.16 1017.93 1018.72
1015.48 1014.77 1014.21 1013.82 1013.57 1013.47 1013.47 1013.53 1013.63 1013.72 1013.79 1013.82 1013.83 1013.82 1013.80 1013.80 1013.84 1013.91 1014.03 1014.19 1014.37 1014.56 1014.75 1014.90 1015.01 1015.07 1015.07 1015.01 1014.90 1014.75 1014.58 1014.41 1014.26 1014.16 1014.12 1014.17 1014.32 1014.59 1014.97 1015.46 1016.05 1016.71 1017.41 1018.15
1015.91 1015.15 1014.53 1014.09 1013.82 1013.72 1013.75 1013.89 1014.10 1014.34 1014.56 1014.76 1014.91 1015.02 1015.08 1015.11 1015.14 1015.16 1015.21 1015.27 1015.35 1015.44 1015.54 1015.62 1015.67 1015.68 1015.64 1015.54 1015.39 1015.20 1014.98 1014.76 1014.56 1014.41 1014.33 1014.33 1014.44 1014.66 1014.99 1015.42 1015.93 1016.51 1017.13 1017.76
1016.67 1015.93 1015.33 1014.89 1014.62 1014.53 1014.59 1014.78 1015.05 1015.37 1015.68 1015.97 1016.20 1016.36 1016.46 1016.50 1016.49 1016.46 1016.42 1016.38 1016.36 1016.34 1016.34 1016.33 1016.31 1016.26 1016.17 1016.04 1015.86 1015.64 1015.41 1015.17 1014.96 1014.79 1014.69 1014.68 1014.76 1014.95 1015.23 1015.59 1016.02 1016.50 1017.01 1017.53
1017.80 1017.15 1016.61 1016.21 1015.97 1015.89 1015.96 1016.15 1016.43 1016.75 1017.08 1017.37 1017.61 1017.77 1017.86 1017.86 1017.80 1017.70 1017.57 1017.44 1017.31 1017.19 1017.09 1016.99 1016.90 1016.78 1016.65 1016.48 1016.28 1016.06 1015.83 1015.60 1015.39 1015.23 1015.14 1015.12 1015.18 1015.34 1015.57 1015.87 1016.21 1016.59 1016.98 1017.38
1019.22 1018.70 1018.26 1017.93 1017.73 1017.66 1017.72 1017.87 1018.10 1018.37 1018.64 1018.88 1019.06 1019.16 1019.19 1019.13 1019.00 1018.82 1018.61 1018.40 1018.18 1017.98 1017.79 1017.62 1017.45 1017.28 1017.10 1016.91 1016.69 1016.46 1016.23 1016.01 1015.82 1015.67 1015.58 1015.56 1015.60 1015.72 1015.90 1016.13 1016.39 1016.66 1016.94 1017.21
1020.79 1020.42 1020.10 1019.86 1019.71 1019.65 1019.67 1019.77 1019.91 1020.08 1020.24 1020.37 1020.45 1020.46 1020.40 1020.26 1020.07 1019.83 1019.56 1019.28 1019.00 1018.74 1018.49 1018.26 1018.04 1017.82 1017.60 1017.38 1017.14 1016.90 1016.66 1016.44 1016.24 1016.09 1015.99 1015.94 1015.96 1016.02 1016.14 1016.28 1016.45 1016.62 1016.79 1016.95
1022.30 1022.08 1021.90 1021.75 1021.65 1021.60 1021.59 1021.61 1021.66 1021.71 1021.75 1021.75 1021.71 1021.62 1021.47 1021.27 1021.02 1020.74 1020.44 1020.14 1019.84 1019.54 1019.27 1019.00 1018.75 1018.49 1018.24 1017.97 1017.70 1017.43 1017.16 1016.91 1016.69 1016.50 1016.35 1016.25 1016.20 1016.20 1016.23 1016.29 1016.36 1016.43 1016.50 1016.56
1023.56 1023.49 1023.43 1023.37 1023.32 1023.28 1023.24 1023.21 1023.16 1023.10 1023.02 1022.92 1022.78 1022.60 1022.39 1022.15 1021.88 1021.60 1021.31 1021.02 1020.73 1020.45 1020.17 1019.90 1019.62 1019.34 1019.04 1018.74 1018.42 1018.10 1017.78 1017.47 1017.18 1016.91 1016.69 1016.50 1016.36 1016.26 1016.18 1016.14 1016.11 1016.08 1016.06 1016.04
1024.44 1024.49 1024.53 1024.55 1024.56 1024.53 1024.48 1024.40 1024.29 1024.15 1023.99 1023.80 1023.60 1023.38 1023.15 1022.91 1022.67 1022.43 1022.18 1021.94 1021.70 1021.46 1021.21 1020.94 1020.66 1020.36 1020.03 1019.68 1019.30 1018.91 1018.52 1018.12 1017.74 1017.37 1017.04 1016.74 1016.48 1016.25 1016.06 1015.90 1015.76 1015.64 1015.53 1015.43
Thickness
5563 5566 5565 5563 5561 5564 5565 5566 5567 5565 5552 5551 5559 5563 5565 5559 5554 5554 5554 5551 5548 5546 5543 5539 5536 5534 5532 5532 5531 5530 5529 5528 5528 5528 5529 5531 5532 5533 5534 5536 5538 5539 5541 5542
5556 5552 5548 5545 5545 5547 5549 5551 5556 5551 5538 5540 5547 5552 5554 5551 5547 5546 5545 5543 5540 5537 5534 5530 5527 5525 5524 5523 5522 5521 5520 5519 5518 5519 5519 5521 5522 5523 5524 5525 5527 5528 5529 5531
5549 5540 5534 5533 5534 5536 5539 5541 5542 5538 5531 5527 5529 5551 5550 5544 5537 5534 5532 5531 5530 5527 5526 5523 5519 5517 5516 5514 5513 5512 5511 5510 5509 5509 5509 5509 5510 5512 5514 5514 5516 5517 5517 5519
5530 5524 5522 5525 5525 5525 5533 5525 5521 5517 5522 5534 5524 5547 5553 5539 5532 5528 5526 5523 5521 5518 5516 5513 5511 5509 5507 5506 5504 5502 5502 5501 5499 5499 5499 5501 5504 5505 5504 5504 5504 5504 5505 5506
5519 5511 5513 5516 5514 5511 5516 5507 5505 5505 5508 5513 5514 5517 5548 5527 5527 5525 5520 5515 5511 5507 5505 5503 5500 5499 5497 5496 5494 5492 5491 5491 5490 5490 5490 5491 5492 5493 5492 5492 5493 5493 5494 5494
5501 5495 5496 5499 5496 5495 5493 5494 5493 5492 5499 5508 5515 5513 5539 5531 5521 5519 5512 5504 5499 5496 5494 5492 5490 5488 5486 5485 5483 5482 5482 5481 5480 5480 5479 5480 5481 5481 5481 5481 5482 5482 5482 5482
5497 5489 5482 5481 5486 5485 5484 5493 5503 5505 5506 5519 5498 5499 5521 5514 5506 5501 5497 5493 5488 5484 5482 5481 5479 5477 5476 5475 5473 5472 5472 5471 5469 5469 5469 5469 5469 5469 5470 5470 5470 5470 5471 5471
5495 5496 5477 5470 5475 5477 5476 5482 5495 5503 5513 5518 5484 5496 5512 5493 5485 5481 5478 5477 5475 5473 5471 5469 5467 5466 5465 5463 5462 5461 5461 5460 5459 5459 5458 5457 5457 5457 5458 5458 5458 5459 5459 5460
5483 5483 5461 5456 5456 5464 5466 5470 5466 5473 5470 5479 5499 5493 5488 5479 5475 5472 5469 5466 5464 5462 5460 5458 5456 5454 5453 5452 5451 5450 5450 5449 5448 5448 5447 5446 5446 5446 5447 5447 5447 5447 5448 5448
5462 5462 5455 5444 5445 5445 5451 5454 5455 5461 5471 5484 5495 5492 5494 5478 5473 5466 5460 5456 5454 5451 5449 5447 5445 5443 5442 5441 5439 5439 5438 5438 5437 5437 5436 5436 5435 5435 5435 5436 5437 5437 5437 5437
5443 5447 5445 5438 5438 5447 5437 5437 5442 5449 5450 5465 5477 5488 5476 5468 5462 5455 5450 5445 5442 5439 5436 5435 5433 5432 5430 5429 5428 5426 5427 5426 5426 5426 5425 5425 5425 5424 5424 5426 5427 5427 5427 5426
5429 5436 5443 5439 5423 5417 5426 5432 5433 5442 5440 5437 5454 5468 5455 5447 5442 5437 5434 5431 5429 5425 5423 5421 5420 5419 5418 5417 5416 5415 5415 5415 5414 5414 5414 5413 5413 5413 5414 5415 5416 5416 5416 5416
5415 5420 5435 5440 5422 5406 5408 5409 5409 5415 5424 5429 5439 5457 5436 5427 5425 5424 5422 5421 5418 5415 5412 5410 5409 5408 5407 5405 5404 5403 5403 5402 5402 5402 5402 5402 5402 5402 5404 5404 5403 5404 5404 5405
5409 5409 5421 5436 5435 5419 5405 5397 5392 5401 5414 5424 5431 5442 5434 5425 5420 5418 5414 5411 5408 5404 5401 5399 5398 5396 5395 5393 5391 5391 5390 5389 5389 5389 5389 5390 5390 5391 5391 5392 5392 5392 5393 5393
5396 5403 5400 5404 5401 5396 5397 5395 5385 5387 5404 5412 5424 5418 5422 5417 5411 5407 5403 5399 5396 5394 5391 5389 5386 5384 5382 5380 5379 5378 5378 5377 5377 5377 5377 5378 5378 5378 5379 5379 5380 5381 5381 5381
5379 5387 5384 5388 5388 5384 5381 5386 5383 5379 5384 5390 5394 5398 5403 5398 5393 5392 5390 5387 5385 5385 5382 5378 5375 5372 5369 5367 5366 5365 5365 5365 5365 5366 5366 5365 5366 5367 5367 5368 5368 5369 5369 5369
5371 5371 5378 5394 5375 5371 5385 5387 5380 5376 5375 5380 5387 5395 5388 5381 5380 5381 5379 5377 5375 5374 5371 5368 5364 5361 5358 5356 5354 5353 5353 5353 5353 5353 5354 5354 5354 5355 5355 5355 5355 5356 5357 5358
5358 5361 5366 5375 5368 5375 5397 5372 5372 5372 5370 5365 5370 5373 5372 5370 5369 5367 5366 5365 5364 5361 5359 5356 5354 5351 5348 5345 5343 5342 5341 5341 5341 5342 5342 5342 5342 5342 5342 5343 5343 5344 5344 5345
5349 5354 5361 5363 5370 5382 5381 5364 5355 5357 5367 5360 5357 5360 5360 5356 5358 5365 5359 5354 5351 5349 5347 5345 5342 5339 5336 5334 5332 5331 5331 5330 5330 5331 5331 5330 5330 5330 5330 5331 5332 5332 5332 5333
5331 5338 5349 5349 5356 5367 5377 5352 5342 5348 5362 5356 5346 5347 5346 5345 5361 5365 5348 5341 5339 5337 5334 5332 5330 5328 5326 5324 5321 5321 5321 5321 5321 5320 5320 5319 5319 5319 5319 5319 5319 5319 5319 5320
5325 5326 5332 5340 5345 5359 5349 5331 5333 5348 5360 5343 5337 5335 5333 5337 5343 5340 5333 5329 5327 5325 5323 5321 5319 5317 5315 5313 5311 5311 5311 5311 5310 5309 5309 5308 5308 5308 5308 5308 5307 5307 5307 5308
5328 5327 5323 5327 5333 5347 5328 5322 5330 5341 5332 5328 5326 5325 5323 5324 5323 5322 5320 5317 5316 5314 5312 5310 5308 5306 5304 5302 5301 5301 5301 5300 5298 5298 5298 5298 5297 5297 5297 5296 5296 5296 5295 5296
5319 5325 5328 5325 5338 5332 5318 5319 5319 5315 5317 5318 5318 5315 5313 5312 5312 5311 5309 5308 5305 5303 5301 5299 5297 5295 5293 5292 5290 5290 5289 5287 5287 5287 5287 5286 5286 5285 5285 5284 5285 5284 5284 5284
5310 5300 5307 5309 5320 5318 5312 5310 5307 5305 5306 5307 5306 5304 5303 5302 5302 5301 5299 5298 5296 5293 5291 5288 5286 5285 5283 5281 5279 5278 5277 5276 5276 5276 5275 5275 5275 5275 5273 5273 5273 5273 5273 5272
5311 5294 5297 5302 5310 5306 5309 5305 5303 5300 5298 5296 5296 5295 5293 5293 5292 5291 5290 5288 5286 5283 5280 5278 5277 5275 5273 5270 5269 5267 5266 5265 5265 5264 5264 5263 5263 5263 5263 5262 5261 5261 5261 5260
5300 5295 5300 5314 5311 5305 5309 5302 5296 5293 5291 5289 5288 5287 5286 5284 5282 5281 5280 5278 5276 5273 5271 5269 5267 5265 5263 5260 5259 5257 5256 5255 5254 5254 5254 5253 5253 5252 5252 5252 5252 5251 5250 5250